Regional Weather Roundup
Issued by NWS Cleveland, OH

Home | Current Version | Previous Version | Text Only | Print | Product List | Glossary Off
Versions: 1 2 3 4 5 6 7 8 9 10 11 12 13 14 15 16 17 18 19 20 21 22 23 24 25 26 27 28 29 30 31 32 33 34 35 36 37 38 39 40 41 42 43 44 45 46 47 48 49 50

000
ASUS41 KCLE 291010
RWRCLE
OHIO REGIONAL WEATHER ROUNDUP
NATIONAL WEATHER SERVICE WILMINGTON, OH
600 AM EDT SUN MAY 29 2016

NOTE: "FAIR" INDICATES FEW OR NO CLOUDS BELOW 12,000 FEET WITH NO
SIGNIFICANT WEATHER AND/OR OBSTRUCTIONS TO VISIBILITY.

OHZ001>008-015>018-024>027-034-035-043-044-291100-
   NORTHWEST OHIO

CITY           SKY/WX    TMP DP  RH WIND       PRES   REMARKS
DEFIANCE       FAIR      70  64  81 S8        30.05R
FINDLAY        FAIR      70  62  76 SW9       30.06S
TOLEDO EXPRESS FAIR      69  63  81 S6        30.04F
TOLEDO EXEC    FAIR      68  62  81 S7        30.06S
LIMA           FAIR      69  64  84 S9        30.08S
$$

OHZ009>014-019>023-028>033-038-089-291100-
   NORTHEAST OHIO

CITY           SKY/WX    TMP DP  RH WIND       PRES   REMARKS
CLE-HOPKINS    FAIR      69  63  81 S3        30.10S
CLE-LAKEFRONT  FAIR      72  64  76 SE5       30.07S
CUY CO. ARPT   NOT AVBL
LORAIN-ELYRIA  FAIR      66  63  90 S5        30.09R FOG
ASHTABULA      FAIR      65  65 100 CALM      30.11S FOG
AKRON-CANTON   MOCLDY    67  62  84 S3        30.11S
WOOSTER        FAIR      63  61  93 CALM      30.12R FOG
MANSFIELD      FAIR      65  64  97 S5        30.11R FOG
YOUNGSTOWN     FAIR      64  62  93 CALM      30.11S
$$

OHZ042-051>053-060>062-070>072-077>081-291100-
  SOUTHWEST OHIO

CITY           SKY/WX    TMP DP  RH WIND       PRES   REMARKS
CINC-COVINGTON CLOUDY    68  63  84 S5        30.10R
CINC-LUNKEN    CLOUDY    65  65 100 CALM      30.10S
HAMILTON       LGT RAIN  67  65  93 CALM      30.10R
DAYTON         CLOUDY    69  62  78 SW7       30.11R
WRIGHT-PAT AFB CLOUDY    67  65  91 CALM      30.10R
DAYTON GENERAL LGT RAIN  69  60  73 CALM      30.10R
WILMINGTON     CLOUDY    66  62  87 S3        30.11R
$$

OHZ036-037-039>041-045>050-054>059-063>069-073>076-082>088-291100-
  CENTRAL AND SOUTHEAST OHIO

CITY           SKY/WX    TMP DP  RH WIND       PRES   REMARKS
COLUMBUS       CLOUDY    67  65  93 CALM      30.10R
OSU AIRPORT    MOCLDY    68  64  87 CALM      30.10R
BOLTON FIELD   MOCLDY    66  66  99 CALM      30.11R FOG
RICKENBACK AFB FAIR      65  65  98 CALM      30.10S FOG
NEWARK         FOG       64  63  96 CALM      30.11R VSB 3/4
MARION         FAIR      64  63  96 S6        30.10S FOG
LANCASTER      FAIR      65  63  93 S3        30.11S FOG
ZANESVILLE     FAIR      67  64  90 CALM      30.12R FOG
NEW PHILLY     FAIR      66  62  87 CALM      30.12R
$$




USA.gov is the U.S. government's official web portal to all federal, state and local government web resources and services.